Date_Time,Julian_Date,Latitude,Longitude,Instrument_Depth,U,V,Speed,Direction
(yyyy-mm-dd hh:mn:ss UTC),(JD),(+ deg. North),(+ deg. East),(m),(cm/s),(cm/s),(cm/s),(deg True)
1984-06-14 17:30:00 UTC,2445866.229167,28.7317,-95.2428,0036,-8.89,-24.43,26.0000,200.0000
1984-06-14 18:00:00 UTC,2445866.250000,28.7317,-95.2428,0036,-8.46,-24.58,26.0000,199.0000
1984-06-14 18:30:00 UTC,2445866.270833,28.7317,-95.2428,0036,-8.03,-24.73,26.0000,198.0000
1984-06-14 19:00:00 UTC,2445866.291667,28.7317,-95.2428,0036,-8.34,-25.68,27.0000,198.0000
1984-06-14 19:30:00 UTC,2445866.312500,28.7317,-95.2428,0036,-8.19,-26.78,28.0000,197.0000
1984-06-14 20:00:00 UTC,2445866.333333,28.7317,-95.2428,0036,-7.99,-27.88,29.0000,196.0000
1984-06-14 20:30:00 UTC,2445866.354167,28.7317,-95.2428,0036,-7.26,-29.11,30.0000,194.0000
1984-06-14 21:00:00 UTC,2445866.375000,28.7317,-95.2428,0036,-7.42,-32.15,33.0000,193.0000
1984-06-14 21:30:00 UTC,2445866.395833,28.7317,-95.2428,0036,-9.65,-33.64,35.0000,196.0000
1984-06-14 22:00:00 UTC,2445866.416667,28.7317,-95.2428,0036,-12.31,-33.83,36.0000,200.0000
1984-06-14 22:30:00 UTC,2445866.437500,28.7317,-95.2428,0036,-14.24,-31.97,35.0000,204.0000
1984-06-14 23:00:00 UTC,2445866.458333,28.7317,-95.2428,0036,-14.53,-28.51,32.0000,207.0000
1984-06-14 23:30:00 UTC,2445866.479167,28.7317,-95.2428,0036,-15.49,-22.12,27.0000,215.0000
1984-06-15 00:00:00 UTC,2445866.500000,28.7317,-95.2428,0036,-15.28,-7.45,17.0000,244.0000
1984-06-15 00:30:00 UTC,2445866.520833,28.7317,-95.2428,0036,-13.81,5.86,15.0000,293.0000
1984-06-15 01:00:00 UTC,2445866.541667,28.7317,-95.2428,0036,-11.49,9.64,15.0000,310.0000
1984-06-15 01:30:00 UTC,2445866.562500,28.7317,-95.2428,0036,-9.90,9.90,14.0000,315.0000
1984-06-15 02:00:00 UTC,2445866.583333,28.7317,-95.2428,0036,-9.00,10.72,14.0000,320.0000
1984-06-15 02:30:00 UTC,2445866.604167,28.7317,-95.2428,0036,-10.23,13.58,17.0000,323.0000
1984-06-15 03:00:00 UTC,2445866.625000,28.7317,-95.2428,0036,-11.33,18.86,22.0000,329.0000
1984-06-15 03:30:00 UTC,2445866.645833,28.7317,-95.2428,0036,-10.98,24.67,27.0000,336.0000
1984-06-15 04:00:00 UTC,2445866.666667,28.7317,-95.2428,0036,-9.06,29.65,31.0000,343.0000
1984-06-15 04:30:00 UTC,2445866.687500,28.7317,-95.2428,0036,-8.54,31.88,33.0000,345.0000
1984-06-15 05:00:00 UTC,2445866.708333,28.7317,-95.2428,0036,-8.47,33.96,35.0000,346.0000
1984-06-15 05:30:00 UTC,2445866.729167,28.7317,-95.2428,0036,-6.87,35.34,36.0000,349.0000
1984-06-15 06:00:00 UTC,2445866.750000,28.7317,-95.2428,0036,-5.01,35.65,36.0000,352.0000
1984-06-15 06:30:00 UTC,2445866.770833,28.7317,-95.2428,0036,-4.51,36.72,37.0000,353.0000
1984-06-15 07:00:00 UTC,2445866.791667,28.7317,-95.2428,0036,-3.87,36.80,37.0000,354.0000
1984-06-15 07:30:00 UTC,2445866.812500,28.7317,-95.2428,0036,-3.22,36.86,37.0000,355.0000
1984-06-15 08:00:00 UTC,2445866.833333,28.7317,-95.2428,0036,-1.88,35.95,36.0000,357.0000
1984-06-15 08:30:00 UTC,2445866.854167,28.7317,-95.2428,0036,-1.22,34.98,35.0000,358.0000
1984-06-15 09:00:00 UTC,2445866.875000,28.7317,-95.2428,0036,-0.61,34.99,35.0000,359.0000
1984-06-15 09:30:00 UTC,2445866.895833,28.7317,-95.2428,0036,-0.58,32.99,33.0000,359.0000
1984-06-15 10:00:00 UTC,2445866.916667,28.7317,-95.2428,0036,-0.56,32.00,32.0000,359.0000
1984-06-15 10:30:00 UTC,2445866.937500,28.7317,-95.2428,0036,-0.51,29.00,29.0000,359.0000
1984-06-15 11:00:00 UTC,2445866.958333,28.7317,-95.2428,0036,0.44,25.00,25.0000,1.0000
1984-06-15 11:30:00 UTC,2445866.979167,28.7317,-95.2428,0036,2.20,20.88,21.0000,6.0000
1984-06-15 12:00:00 UTC,2445867.000000,28.7317,-95.2428,0036,3.13,17.73,18.0000,10.0000
1984-06-15 12:30:00 UTC,2445867.020833,28.7317,-95.2428,0036,4.14,15.45,16.0000,15.0000
1984-06-15 13:00:00 UTC,2445867.041667,28.7317,-95.2428,0036,4.79,13.16,14.0000,20.0000
1984-06-15 13:30:00 UTC,2445867.062500,28.7317,-95.2428,0036,5.29,11.88,13.0000,24.0000
1984-06-15 14:00:00 UTC,2445867.083333,28.7317,-95.2428,0036,4.65,9.97,11.0000,25.0000
1984-06-15 14:30:00 UTC,2445867.104167,28.7317,-95.2428,0036,4.82,9.89,11.0000,26.0000
1984-06-15 15:00:00 UTC,2445867.125000,28.7317,-95.2428,0036,6.00,10.39,12.0000,30.0000
1984-06-15 15:30:00 UTC,2445867.145833,28.7317,-95.2428,0036,8.00,10.24,13.0000,38.0000
1984-06-15 16:00:00 UTC,2445867.166667,28.7317,-95.2428,0036,9.19,9.19,13.0000,45.0000
1984-06-15 16:30:00 UTC,2445867.187500,28.7317,-95.2428,0036,9.51,8.87,13.0000,47.0000
1984-06-15 17:00:00 UTC,2445867.208333,28.7317,-95.2428,0036,9.81,8.53,13.0000,49.0000
1984-06-15 17:30:00 UTC,2445867.229167,28.7317,-95.2428,0036,9.83,6.88,12.0000,55.0000
1984-06-15 18:00:00 UTC,2445867.250000,28.7317,-95.2428,0036,10.60,5.63,12.0000,62.0000
1984-06-15 18:30:00 UTC,2445867.270833,28.7317,-95.2428,0036,10.60,5.63,12.0000,62.0000
1984-06-15 19:00:00 UTC,2445867.291667,28.7317,-95.2428,0036,9.53,5.50,11.0000,60.0000
1984-06-15 19:30:00 UTC,2445867.312500,28.7317,-95.2428,0036,9.43,5.67,11.0000,59.0000
1984-06-15 20:00:00 UTC,2445867.333333,28.7317,-95.2428,0036,8.78,6.62,11.0000,53.0000
1984-06-15 20:30:00 UTC,2445867.354167,28.7317,-95.2428,0036,7.07,7.07,10.0000,45.0000
1984-06-15 21:00:00 UTC,2445867.375000,28.7317,-95.2428,0036,6.02,7.99,10.0000,37.0000
1984-06-15 21:30:00 UTC,2445867.395833,28.7317,-95.2428,0036,4.64,7.71,9.0000,31.0000
1984-06-15 22:00:00 UTC,2445867.416667,28.7317,-95.2428,0036,4.12,6.86,8.0000,31.0000
1984-06-15 22:30:00 UTC,2445867.437500,28.7317,-95.2428,0036,2.44,5.48,6.0000,24.0000
1984-06-15 23:00:00 UTC,2445867.458333,28.7317,-95.2428,0036,-0.52,4.97,5.0000,354.0000
1984-06-15 23:30:00 UTC,2445867.479167,28.7317,-95.2428,0036,-3.78,4.66,6.0000,321.0000
1984-06-16 00:00:00 UTC,2445867.500000,28.7317,-95.2428,0036,-5.80,3.91,7.0000,304.0000
1984-06-16 00:30:00 UTC,2445867.520833,28.7317,-95.2428,0036,-7.87,4.36,9.0000,299.0000
1984-06-16 01:00:00 UTC,2445867.541667,28.7317,-95.2428,0036,-9.95,6.71,12.0000,304.0000
1984-06-16 01:30:00 UTC,2445867.562500,28.7317,-95.2428,0036,-11.32,9.84,15.0000,311.0000
1984-06-16 02:00:00 UTC,2445867.583333,28.7317,-95.2428,0036,-12.71,14.12,19.0000,318.0000
1984-06-16 02:30:00 UTC,2445867.604167,28.7317,-95.2428,0036,-12.86,19.07,23.0000,326.0000
1984-06-16 03:00:00 UTC,2445867.625000,28.7317,-95.2428,0036,-11.84,24.27,27.0000,334.0000
1984-06-16 03:30:00 UTC,2445867.645833,28.7317,-95.2428,0036,-10.26,28.19,30.0000,340.0000
1984-06-16 04:00:00 UTC,2445867.666667,28.7317,-95.2428,0036,-8.80,32.84,34.0000,345.0000
1984-06-16 04:30:00 UTC,2445867.687500,28.7317,-95.2428,0036,-7.06,36.32,37.0000,349.0000
1984-06-16 05:00:00 UTC,2445867.708333,28.7317,-95.2428,0036,-5.43,38.62,39.0000,352.0000
1984-06-16 05:30:00 UTC,2445867.729167,28.7317,-95.2428,0036,-4.18,39.78,40.0000,354.0000
1984-06-16 06:00:00 UTC,2445867.750000,28.7317,-95.2428,0036,-2.86,40.90,41.0000,356.0000
1984-06-16 06:30:00 UTC,2445867.770833,28.7317,-95.2428,0036,-1.47,41.97,42.0000,358.0000
1984-06-16 07:00:00 UTC,2445867.791667,28.7317,-95.2428,0036,0.75,42.99,43.0000,1.0000
1984-06-16 07:30:00 UTC,2445867.812500,28.7317,-95.2428,0036,1.54,43.97,44.0000,2.0000
1984-06-16 08:00:00 UTC,2445867.833333,28.7317,-95.2428,0036,1.50,42.97,43.0000,2.0000
1984-06-16 08:30:00 UTC,2445867.854167,28.7317,-95.2428,0036,3.75,42.84,43.0000,5.0000
1984-06-16 09:00:00 UTC,2445867.875000,28.7317,-95.2428,0036,6.12,43.57,44.0000,8.0000
1984-06-16 09:30:00 UTC,2445867.895833,28.7317,-95.2428,0036,9.36,44.02,45.0000,12.0000
1984-06-16 10:00:00 UTC,2445867.916667,28.7317,-95.2428,0036,10.64,42.69,44.0000,14.0000
1984-06-16 10:30:00 UTC,2445867.937500,28.7317,-95.2428,0036,10.87,40.57,42.0000,15.0000
1984-06-16 11:00:00 UTC,2445867.958333,28.7317,-95.2428,0036,12.67,38.99,41.0000,18.0000
1984-06-16 11:30:00 UTC,2445867.979167,28.7317,-95.2428,0036,14.33,37.34,40.0000,21.0000
1984-06-16 12:00:00 UTC,2445868.000000,28.7317,-95.2428,0036,15.46,34.71,38.0000,24.0000
1984-06-16 12:30:00 UTC,2445868.020833,28.7317,-95.2428,0036,16.90,31.79,36.0000,28.0000
1984-06-16 13:00:00 UTC,2445868.041667,28.7317,-95.2428,0036,17.89,26.53,32.0000,34.0000
1984-06-16 13:30:00 UTC,2445868.062500,28.7317,-95.2428,0036,16.99,20.98,27.0000,39.0000
1984-06-16 14:00:00 UTC,2445868.083333,28.7317,-95.2428,0036,15.39,19.70,25.0000,38.0000
1984-06-16 14:30:00 UTC,2445868.104167,28.7317,-95.2428,0036,13.07,20.13,24.0000,33.0000
1984-06-16 15:00:00 UTC,2445868.125000,28.7317,-95.2428,0036,11.13,17.81,21.0000,32.0000
1984-06-16 15:30:00 UTC,2445868.145833,28.7317,-95.2428,0036,11.43,15.17,19.0000,37.0000
1984-06-16 16:00:00 UTC,2445868.166667,28.7317,-95.2428,0036,11.38,12.63,17.0000,42.0000
1984-06-16 16:30:00 UTC,2445868.187500,28.7317,-95.2428,0036,11.31,11.31,16.0000,45.0000
1984-06-16 17:00:00 UTC,2445868.208333,28.7317,-95.2428,0036,10.79,10.42,15.0000,46.0000
1984-06-16 17:30:00 UTC,2445868.229167,28.7317,-95.2428,0036,10.24,9.55,14.0000,47.0000
1984-06-16 18:00:00 UTC,2445868.250000,28.7317,-95.2428,0036,10.72,9.00,14.0000,50.0000
1984-06-16 18:30:00 UTC,2445868.270833,28.7317,-95.2428,0036,10.65,7.46,13.0000,55.0000
1984-06-16 19:00:00 UTC,2445868.291667,28.7317,-95.2428,0036,9.62,5.33,11.0000,61.0000
1984-06-16 19:30:00 UTC,2445868.312500,28.7317,-95.2428,0036,5.52,2.34,6.0000,67.0000
1984-06-16 20:00:00 UTC,2445868.333333,28.7317,-95.2428,0036,1.99,0.24,2.0000,83.0000
1984-06-16 20:30:00 UTC,2445868.354167,28.7317,-95.2428,0036,0.00,-0.00,0.0000,127.0000
1984-06-16 21:00:00 UTC,2445868.375000,28.7317,-95.2428,0036,-0.00,0.00,0.0000,322.0000
1984-06-16 21:30:00 UTC,2445868.395833,28.7317,-95.2428,0036,-0.95,0.31,1.0000,288.0000
1984-06-16 22:00:00 UTC,2445868.416667,28.7317,-95.2428,0036,-1.94,-0.48,2.0000,256.0000
1984-06-16 22:30:00 UTC,2445868.437500,28.7317,-95.2428,0036,-3.68,-1.56,4.0000,247.0000
1984-06-16 23:00:00 UTC,2445868.458333,28.7317,-95.2428,0036,-6.49,-2.62,7.0000,248.0000
1984-06-16 23:30:00 UTC,2445868.479167,28.7317,-95.2428,0036,-9.66,-2.59,10.0000,255.0000
1984-06-17 00:00:00 UTC,2445868.500000,28.7317,-95.2428,0036,-13.98,0.73,14.0000,273.0000
1984-06-17 00:30:00 UTC,2445868.520833,28.7317,-95.2428,0036,-18.17,5.56,19.0000,287.0000
1984-06-17 01:00:00 UTC,2445868.541667,28.7317,-95.2428,0036,-23.01,9.77,25.0000,293.0000
1984-06-17 01:30:00 UTC,2445868.562500,28.7317,-95.2428,0036,-25.38,11.83,28.0000,295.0000
1984-06-17 02:00:00 UTC,2445868.583333,28.7317,-95.2428,0036,-27.62,14.07,31.0000,297.0000
1984-06-17 02:30:00 UTC,2445868.604167,28.7317,-95.2428,0036,-28.58,16.50,33.0000,300.0000
1984-06-17 03:00:00 UTC,2445868.625000,28.7317,-95.2428,0036,-28.51,18.52,34.0000,303.0000
1984-06-17 03:30:00 UTC,2445868.645833,28.7317,-95.2428,0036,-27.95,21.06,35.0000,307.0000
1984-06-17 04:00:00 UTC,2445868.666667,28.7317,-95.2428,0036,-27.58,23.14,36.0000,310.0000
1984-06-17 04:30:00 UTC,2445868.687500,28.7317,-95.2428,0036,-27.92,24.27,37.0000,311.0000
1984-06-17 05:00:00 UTC,2445868.708333,28.7317,-95.2428,0036,-27.50,24.76,37.0000,312.0000
1984-06-17 05:30:00 UTC,2445868.729167,28.7317,-95.2428,0036,-28.24,25.43,38.0000,312.0000
1984-06-17 06:00:00 UTC,2445868.750000,28.7317,-95.2428,0036,-28.24,25.43,38.0000,312.0000
1984-06-17 06:30:00 UTC,2445868.770833,28.7317,-95.2428,0036,-28.05,27.09,39.0000,314.0000
1984-06-17 07:00:00 UTC,2445868.791667,28.7317,-95.2428,0036,-26.87,26.87,38.0000,315.0000
1984-06-17 07:30:00 UTC,2445868.812500,28.7317,-95.2428,0036,-25.70,26.62,37.0000,316.0000
1984-06-17 08:00:00 UTC,2445868.833333,28.7317,-95.2428,0036,-24.55,26.33,36.0000,317.0000
1984-06-17 08:30:00 UTC,2445868.854167,28.7317,-95.2428,0036,-24.09,26.75,36.0000,318.0000
1984-06-17 09:00:00 UTC,2445868.875000,28.7317,-95.2428,0036,-22.96,26.41,35.0000,319.0000
1984-06-17 09:30:00 UTC,2445868.895833,28.7317,-95.2428,0036,-21.65,24.91,33.0000,319.0000
1984-06-17 10:00:00 UTC,2445868.916667,28.7317,-95.2428,0036,-19.40,21.55,29.0000,318.0000
1984-06-17 10:30:00 UTC,2445868.937500,28.7317,-95.2428,0036,-17.05,18.28,25.0000,317.0000
1984-06-17 11:00:00 UTC,2445868.958333,28.7317,-95.2428,0036,-14.59,15.11,21.0000,316.0000
1984-06-17 11:30:00 UTC,2445868.979167,28.7317,-95.2428,0036,-12.43,11.59,17.0000,313.0000
1984-06-17 12:00:00 UTC,2445869.000000,28.7317,-95.2428,0036,-9.96,8.36,13.0000,310.0000
1984-06-17 12:30:00 UTC,2445869.020833,28.7317,-95.2428,0036,-8.09,5.88,10.0000,306.0000
1984-06-17 13:00:00 UTC,2445869.041667,28.7317,-95.2428,0036,-8.09,3.95,9.0000,296.0000
1984-06-17 13:30:00 UTC,2445869.062500,28.7317,-95.2428,0036,-5.97,0.63,6.0000,276.0000
1984-06-17 14:00:00 UTC,2445869.083333,28.7317,-95.2428,0036,-5.44,-2.54,6.0000,245.0000
1984-06-17 14:30:00 UTC,2445869.104167,28.7317,-95.2428,0036,-5.52,-4.31,7.0000,232.0000
1984-06-17 15:00:00 UTC,2445869.125000,28.7317,-95.2428,0036,-6.22,-5.03,8.0000,231.0000
1984-06-17 15:30:00 UTC,2445869.145833,28.7317,-95.2428,0036,-6.69,-6.02,9.0000,228.0000
1984-06-17 16:00:00 UTC,2445869.166667,28.7317,-95.2428,0036,-6.14,-6.58,9.0000,223.0000
1984-06-17 16:30:00 UTC,2445869.187500,28.7317,-95.2428,0036,-6.43,-7.66,10.0000,220.0000
1984-06-17 17:00:00 UTC,2445869.208333,28.7317,-95.2428,0036,-6.56,-7.55,10.0000,221.0000
1984-06-17 17:30:00 UTC,2445869.229167,28.7317,-95.2428,0036,-7.64,-7.91,11.0000,224.0000
1984-06-17 18:00:00 UTC,2445869.250000,28.7317,-95.2428,0036,-7.50,-8.04,11.0000,223.0000
1984-06-17 18:30:00 UTC,2445869.270833,28.7317,-95.2428,0036,-7.36,-8.17,11.0000,222.0000
1984-06-17 19:00:00 UTC,2445869.291667,28.7317,-95.2428,0036,-8.18,-8.78,12.0000,223.0000
1984-06-17 19:30:00 UTC,2445869.312500,28.7317,-95.2428,0036,-9.73,-10.07,14.0000,224.0000
1984-06-17 20:00:00 UTC,2445869.333333,28.7317,-95.2428,0036,-10.23,-10.97,15.0000,223.0000
1984-06-17 20:30:00 UTC,2445869.354167,28.7317,-95.2428,0036,-10.50,-12.08,16.0000,221.0000
1984-06-17 21:00:00 UTC,2445869.375000,28.7317,-95.2428,0036,-10.71,-11.89,16.0000,222.0000
1984-06-17 21:30:00 UTC,2445869.395833,28.7317,-95.2428,0036,-11.70,-10.91,16.0000,227.0000
1984-06-17 22:00:00 UTC,2445869.416667,28.7317,-95.2428,0036,-11.51,-11.11,16.0000,226.0000
1984-06-17 22:30:00 UTC,2445869.437500,28.7317,-95.2428,0036,-12.50,-12.95,18.0000,224.0000
1984-06-17 23:00:00 UTC,2445869.458333,28.7317,-95.2428,0036,-13.20,-13.67,19.0000,224.0000
1984-06-17 23:30:00 UTC,2445869.479167,28.7317,-95.2428,0036,-13.20,-13.67,19.0000,224.0000
1984-06-18 00:00:00 UTC,2445869.500000,28.7317,-95.2428,0036,-14.59,-15.11,21.0000,224.0000
1984-06-18 00:30:00 UTC,2445869.520833,28.7317,-95.2428,0036,-15.11,-14.59,21.0000,226.0000
1984-06-18 01:00:00 UTC,2445869.541667,28.7317,-95.2428,0036,-16.85,-14.14,22.0000,230.0000
1984-06-18 01:30:00 UTC,2445869.562500,28.7317,-95.2428,0036,-17.80,-12.93,22.0000,234.0000
1984-06-18 02:00:00 UTC,2445869.583333,28.7317,-95.2428,0036,-18.24,-12.30,22.0000,236.0000
1984-06-18 02:30:00 UTC,2445869.604167,28.7317,-95.2428,0036,-18.86,-11.33,22.0000,239.0000
1984-06-18 03:00:00 UTC,2445869.625000,28.7317,-95.2428,0036,-21.57,-10.52,24.0000,244.0000
1984-06-18 03:30:00 UTC,2445869.645833,28.7317,-95.2428,0036,-24.27,-9.32,26.0000,249.0000
1984-06-18 04:00:00 UTC,2445869.666667,28.7317,-95.2428,0036,-25.95,-7.44,27.0000,254.0000
1984-06-18 04:30:00 UTC,2445869.687500,28.7317,-95.2428,0036,-27.66,-4.38,28.0000,261.0000
1984-06-18 05:00:00 UTC,2445869.708333,28.7317,-95.2428,0036,-28.00,-0.49,28.0000,269.0000
1984-06-18 05:30:00 UTC,2445869.729167,28.7317,-95.2428,0036,-26.90,2.35,27.0000,275.0000
1984-06-18 06:00:00 UTC,2445869.750000,28.7317,-95.2428,0036,-26.67,4.22,27.0000,279.0000
1984-06-18 06:30:00 UTC,2445869.770833,28.7317,-95.2428,0036,-25.52,4.96,26.0000,281.0000
1984-06-18 07:00:00 UTC,2445869.791667,28.7317,-95.2428,0036,-25.23,6.29,26.0000,284.0000
1984-06-18 07:30:00 UTC,2445869.812500,28.7317,-95.2428,0036,-25.68,8.34,27.0000,288.0000
1984-06-18 08:00:00 UTC,2445869.833333,28.7317,-95.2428,0036,-24.43,8.89,26.0000,290.0000
1984-06-18 08:30:00 UTC,2445869.854167,28.7317,-95.2428,0036,-23.49,8.55,25.0000,290.0000
1984-06-18 09:00:00 UTC,2445869.875000,28.7317,-95.2428,0036,-22.41,8.60,24.0000,291.0000
1984-06-18 09:30:00 UTC,2445869.895833,28.7317,-95.2428,0036,-20.85,9.72,23.0000,295.0000
1984-06-18 10:00:00 UTC,2445869.916667,28.7317,-95.2428,0036,-20.12,11.15,23.0000,299.0000
1984-06-18 10:30:00 UTC,2445869.937500,28.7317,-95.2428,0036,-18.86,11.33,22.0000,301.0000
1984-06-18 11:00:00 UTC,2445869.958333,28.7317,-95.2428,0036,-17.41,11.74,21.0000,304.0000
1984-06-18 11:30:00 UTC,2445869.979167,28.7317,-95.2428,0036,-18.02,12.62,22.0000,305.0000
1984-06-18 12:00:00 UTC,2445870.000000,28.7317,-95.2428,0036,-17.57,13.24,22.0000,307.0000
1984-06-18 12:30:00 UTC,2445870.020833,28.7317,-95.2428,0036,-16.32,13.22,21.0000,309.0000
1984-06-18 13:00:00 UTC,2445870.041667,28.7317,-95.2428,0036,-14.34,12.47,19.0000,311.0000
1984-06-18 13:30:00 UTC,2445870.062500,28.7317,-95.2428,0036,-13.21,10.70,17.0000,309.0000
1984-06-18 14:00:00 UTC,2445870.083333,28.7317,-95.2428,0036,-11.74,7.62,14.0000,303.0000
1984-06-18 14:30:00 UTC,2445870.104167,28.7317,-95.2428,0036,-9.89,4.82,11.0000,296.0000
1984-06-18 15:00:00 UTC,2445870.125000,28.7317,-95.2428,0036,-8.56,2.78,9.0000,288.0000
1984-06-18 15:30:00 UTC,2445870.145833,28.7317,-95.2428,0036,-7.90,1.25,8.0000,279.0000
1984-06-18 16:00:00 UTC,2445870.166667,28.7317,-95.2428,0036,-7.98,0.56,8.0000,274.0000
1984-06-18 16:30:00 UTC,2445870.187500,28.7317,-95.2428,0036,-7.99,0.42,8.0000,273.0000
1984-06-18 17:00:00 UTC,2445870.208333,28.7317,-95.2428,0036,-7.98,0.56,8.0000,274.0000
1984-06-18 17:30:00 UTC,2445870.229167,28.7317,-95.2428,0036,-6.99,0.37,7.0000,273.0000
1984-06-18 18:00:00 UTC,2445870.250000,28.7317,-95.2428,0036,-5.98,0.52,6.0000,275.0000
1984-06-18 18:30:00 UTC,2445870.270833,28.7317,-95.2428,0036,-5.52,2.34,6.0000,293.0000
1984-06-18 19:00:00 UTC,2445870.291667,28.7317,-95.2428,0036,-4.73,3.69,6.0000,308.0000
1984-06-18 19:30:00 UTC,2445870.312500,28.7317,-95.2428,0036,-4.10,2.87,5.0000,305.0000
1984-06-18 20:00:00 UTC,2445870.333333,28.7317,-95.2428,0036,-2.57,1.55,3.0000,301.0000
1984-06-18 20:30:00 UTC,2445870.354167,28.7317,-95.2428,0036,-1.46,1.36,2.0000,313.0000
1984-06-18 21:00:00 UTC,2445870.375000,28.7317,-95.2428,0036,-0.36,0.93,1.0000,339.0000
1984-06-18 21:30:00 UTC,2445870.395833,28.7317,-95.2428,0036,0.84,-0.54,1.0000,123.0000
1984-06-18 22:00:00 UTC,2445870.416667,28.7317,-95.2428,0036,1.89,-2.33,3.0000,141.0000
1984-06-18 22:30:00 UTC,2445870.437500,28.7317,-95.2428,0036,2.27,-4.46,5.0000,153.0000
1984-06-18 23:00:00 UTC,2445870.458333,28.7317,-95.2428,0036,1.65,-5.77,6.0000,164.0000
1984-06-18 23:30:00 UTC,2445870.479167,28.7317,-95.2428,0036,1.39,-7.88,8.0000,170.0000
1984-06-19 00:00:00 UTC,2445870.500000,28.7317,-95.2428,0036,0.94,-8.95,9.0000,174.0000
1984-06-19 00:30:00 UTC,2445870.520833,28.7317,-95.2428,0036,0.17,-10.00,10.0000,179.0000
1984-06-19 01:00:00 UTC,2445870.541667,28.7317,-95.2428,0036,-1.22,-9.93,10.0000,187.0000
1984-06-19 01:30:00 UTC,2445870.562500,28.7317,-95.2428,0036,-3.80,-8.16,9.0000,205.0000
1984-06-19 02:00:00 UTC,2445870.583333,28.7317,-95.2428,0036,-6.13,-5.14,8.0000,230.0000
1984-06-19 02:30:00 UTC,2445870.604167,28.7317,-95.2428,0036,-7.52,-2.74,8.0000,250.0000
1984-06-19 03:00:00 UTC,2445870.625000,28.7317,-95.2428,0036,-8.93,-1.10,9.0000,263.0000
1984-06-19 03:30:00 UTC,2445870.645833,28.7317,-95.2428,0036,-10.00,0.17,10.0000,271.0000
1984-06-19 04:00:00 UTC,2445870.666667,28.7317,-95.2428,0036,-9.96,0.87,10.0000,275.0000
1984-06-19 04:30:00 UTC,2445870.687500,28.7317,-95.2428,0036,-8.97,0.78,9.0000,275.0000
1984-06-19 05:00:00 UTC,2445870.708333,28.7317,-95.2428,0036,-7.92,1.11,8.0000,278.0000
1984-06-19 05:30:00 UTC,2445870.729167,28.7317,-95.2428,0036,-8.56,2.78,9.0000,288.0000
1984-06-19 06:00:00 UTC,2445870.750000,28.7317,-95.2428,0036,-7.87,4.36,9.0000,299.0000
1984-06-19 06:30:00 UTC,2445870.770833,28.7317,-95.2428,0036,-7.09,5.54,9.0000,308.0000
1984-06-19 07:00:00 UTC,2445870.791667,28.7317,-95.2428,0036,-5.90,6.79,9.0000,319.0000
1984-06-19 07:30:00 UTC,2445870.812500,28.7317,-95.2428,0036,-3.95,8.09,9.0000,334.0000
1984-06-19 08:00:00 UTC,2445870.833333,28.7317,-95.2428,0036,-2.02,8.77,9.0000,347.0000
1984-06-19 08:30:00 UTC,2445870.854167,28.7317,-95.2428,0036,-0.47,8.99,9.0000,357.0000
1984-06-19 09:00:00 UTC,2445870.875000,28.7317,-95.2428,0036,0.78,8.97,9.0000,5.0000
1984-06-19 09:30:00 UTC,2445870.895833,28.7317,-95.2428,0036,1.91,9.82,10.0000,11.0000
1984-06-19 10:00:00 UTC,2445870.916667,28.7317,-95.2428,0036,3.40,10.46,11.0000,18.0000
1984-06-19 10:30:00 UTC,2445870.937500,28.7317,-95.2428,0036,5.45,10.69,12.0000,27.0000
1984-06-19 11:00:00 UTC,2445870.958333,28.7317,-95.2428,0036,7.46,10.65,13.0000,35.0000
1984-06-19 11:30:00 UTC,2445870.979167,28.7317,-95.2428,0036,9.37,10.40,14.0000,42.0000
1984-06-19 12:00:00 UTC,2445871.000000,28.7317,-95.2428,0036,10.40,9.37,14.0000,48.0000
1984-06-19 12:30:00 UTC,2445871.020833,28.7317,-95.2428,0036,11.03,8.62,14.0000,52.0000
1984-06-19 13:00:00 UTC,2445871.041667,28.7317,-95.2428,0036,11.74,7.62,14.0000,57.0000
1984-06-19 13:30:00 UTC,2445871.062500,28.7317,-95.2428,0036,12.58,6.14,14.0000,64.0000
1984-06-19 14:00:00 UTC,2445871.083333,28.7317,-95.2428,0036,13.31,4.33,14.0000,72.0000
1984-06-19 14:30:00 UTC,2445871.104167,28.7317,-95.2428,0036,13.79,2.43,14.0000,80.0000
1984-06-19 15:00:00 UTC,2445871.125000,28.7317,-95.2428,0036,14.96,1.05,15.0000,86.0000
1984-06-19 15:30:00 UTC,2445871.145833,28.7317,-95.2428,0036,15.00,-0.26,15.0000,91.0000
1984-06-19 16:00:00 UTC,2445871.166667,28.7317,-95.2428,0036,15.88,-1.95,16.0000,97.0000
1984-06-19 16:30:00 UTC,2445871.187500,28.7317,-95.2428,0036,16.56,-3.82,17.0000,103.0000
1984-06-19 17:00:00 UTC,2445871.208333,28.7317,-95.2428,0036,17.12,-5.56,18.0000,108.0000
1984-06-19 17:30:00 UTC,2445871.229167,28.7317,-95.2428,0036,18.54,-7.49,20.0000,112.0000
1984-06-19 18:00:00 UTC,2445871.250000,28.7317,-95.2428,0036,19.03,-8.87,21.0000,115.0000
1984-06-19 18:30:00 UTC,2445871.270833,28.7317,-95.2428,0036,19.42,-10.33,22.0000,118.0000
1984-06-19 19:00:00 UTC,2445871.291667,28.7317,-95.2428,0036,19.71,-11.85,23.0000,121.0000
1984-06-19 19:30:00 UTC,2445871.312500,28.7317,-95.2428,0036,19.07,-12.86,23.0000,124.0000
1984-06-19 20:00:00 UTC,2445871.333333,28.7317,-95.2428,0036,16.99,-12.34,21.0000,126.0000
1984-06-19 20:30:00 UTC,2445871.354167,28.7317,-95.2428,0036,16.18,-11.76,20.0000,126.0000
1984-06-19 21:00:00 UTC,2445871.375000,28.7317,-95.2428,0036,16.58,-11.18,20.0000,124.0000
1984-06-19 21:30:00 UTC,2445871.395833,28.7317,-95.2428,0036,17.14,-10.30,20.0000,121.0000
1984-06-19 22:00:00 UTC,2445871.416667,28.7317,-95.2428,0036,17.49,-9.70,20.0000,119.0000
1984-06-19 22:30:00 UTC,2445871.437500,28.7317,-95.2428,0036,15.28,-7.45,17.0000,116.0000
1984-06-19 23:00:00 UTC,2445871.458333,28.7317,-95.2428,0036,13.91,-5.62,15.0000,112.0000
1984-06-19 23:30:00 UTC,2445871.479167,28.7317,-95.2428,0036,13.31,-4.33,14.0000,108.0000
1984-06-20 00:00:00 UTC,2445871.500000,28.7317,-95.2428,0036,13.31,-4.33,14.0000,108.0000
1984-06-20 00:30:00 UTC,2445871.520833,28.7317,-95.2428,0036,12.05,-4.87,13.0000,112.0000
1984-06-20 01:00:00 UTC,2445871.541667,28.7317,-95.2428,0036,11.58,-5.90,13.0000,117.0000
1984-06-20 01:30:00 UTC,2445871.562500,28.7317,-95.2428,0036,12.00,-7.21,14.0000,121.0000
1984-06-20 02:00:00 UTC,2445871.583333,28.7317,-95.2428,0036,13.71,-8.24,16.0000,121.0000
1984-06-20 02:30:00 UTC,2445871.604167,28.7317,-95.2428,0036,12.99,-7.50,15.0000,120.0000
1984-06-20 03:00:00 UTC,2445871.625000,28.7317,-95.2428,0036,12.99,-7.50,15.0000,120.0000
1984-06-20 03:30:00 UTC,2445871.645833,28.7317,-95.2428,0036,12.47,-6.36,14.0000,117.0000
1984-06-20 04:00:00 UTC,2445871.666667,28.7317,-95.2428,0036,11.28,-4.10,12.0000,110.0000
1984-06-20 04:30:00 UTC,2445871.687500,28.7317,-95.2428,0036,8.65,-2.48,9.0000,106.0000
1984-06-20 05:00:00 UTC,2445871.708333,28.7317,-95.2428,0036,6.44,-2.74,7.0000,113.0000
1984-06-20 05:30:00 UTC,2445871.729167,28.7317,-95.2428,0036,6.29,-3.07,7.0000,116.0000
1984-06-20 06:00:00 UTC,2445871.750000,28.7317,-95.2428,0036,7.25,-3.38,8.0000,115.0000